Time,TemperatureF,DewpointF,PressureIn,WindDirection,WindDirectionDegrees,WindSpeedMPH,WindSpeedGustMPH,Humidity,HourlyPrecipIn,Conditions,Clouds,dailyrainin,SoftwareType,DateUTC
2013-07-11 00:00:00,79.7,76.1,29.97,NNE,12,5.0,8.0,89,0.00,RA,,0.00,WeatherDisplay:10.37,2013-07-11 06:00:00,
2013-07-11 00:15:00,79.5,76.3,29.97,North,7,6.0,7.0,90,0.00,CLR,,0.00,WeatherDisplay:10.37,2013-07-11 06:15:00,
2013-07-11 00:30:00,79.2,76.3,29.96,North,8,3.0,7.0,91,0.00,CLR,,0.00,WeatherDisplay:10.37,2013-07-11 06:30:00,
2013-07-11 00:45:00,78.8,76.3,29.95,NNE,12,5.0,7.0,92,0.00,CLR,,0.00,WeatherDisplay:10.37,2013-07-11 06:45:00,
2013-07-11 01:00:00,78.5,76.0,29.96,North,10,6.0,8.0,92,0.00,CLR,,0.00,WeatherDisplay:10.37,2013-07-11 07:00:00,
2013-07-11 01:15:00,78.6,76.1,29.95,NNE,14,3.0,8.0,92,0.00,CLR,,0.00,WeatherDisplay:10.37,2013-07-11 07:15:00,
2013-07-11 01:30:00,78.8,76.3,29.95,North,11,3.0,7.0,92,0.00,CLR,,0.00,WeatherDisplay:10.37,2013-07-11 07:30:00,
2013-07-11 01:45:00,78.7,76.2,29.95,North,351,2.0,7.0,92,0.00,CLR,,0.00,WeatherDisplay:10.37,2013-07-11 07:45:00,
2013-07-11 02:00:00,78.6,76.4,29.95,North,7,5.0,6.0,93,0.00,CLR,,0.00,WeatherDisplay:10.37,2013-07-11 08:00:00,
2013-07-11 02:15:00,78.6,76.4,29.95,North,10,5.0,8.0,93,0.00,CLR,,0.00,WeatherDisplay:10.37,2013-07-11 08:15:00,
2013-07-11 02:30:00,78.0,75.1,29.96,NE,38,8.0,18.0,91,0.00,CLR,,0.00,WeatherDisplay:10.37,2013-07-11 08:30:00,
2013-07-11 02:45:00,77.8,74.6,29.95,NE,52,6.0,13.0,90,0.00,CLR,,0.00,WeatherDisplay:10.37,2013-07-11 08:45:00,
2013-07-11 03:00:00,78.7,75.5,29.96,ENE,65,9.0,14.0,90,0.00,CLR,,0.00,WeatherDisplay:10.37,2013-07-11 09:00:00,
2013-07-11 03:15:00,78.7,75.5,29.96,ENE,71,3.0,14.0,90,0.00,CLR,,0.00,WeatherDisplay:10.37,2013-07-11 09:15:00,
2013-07-11 03:30:00,77.2,73.4,29.97,SSE,154,8.0,15.0,88,0.00,CLR,,0.00,WeatherDisplay:10.37,2013-07-11 09:30:00,
2013-07-11 03:45:00,77.8,72.5,29.97,SE,145,9.0,18.0,84,0.00,CLR,,0.00,WeatherDisplay:10.37,2013-07-11 09:45:00,
2013-07-11 04:00:00,78.4,73.5,29.97,SE,141,16.0,22.0,85,0.00,CLR,,0.00,WeatherDisplay:10.37,2013-07-11 10:00:00,
2013-07-11 04:15:00,76.5,73.7,29.97,SE,131,8.0,25.0,91,0.03,RA,,0.03,WeatherDisplay:10.37,2013-07-11 10:15:00,
2013-07-11 04:30:00,74.7,72.2,29.98,SSE,148,9.0,13.0,92,0.09,RA,,0.12,WeatherDisplay:10.37,2013-07-11 10:30:00,
2013-07-11 04:45:00,74.4,72.2,29.98,SSE,155,0.0,9.0,93,0.02,RA,,0.14,WeatherDisplay:10.37,2013-07-11 10:45:00,
2013-07-11 05:00:00,74.1,72.3,29.98,South,184,0.0,5.0,94,0.02,RA,,0.16,WeatherDisplay:10.37,2013-07-11 11:00:00,
2013-07-11 05:15:00,73.9,72.1,29.97,South,170,0.0,2.0,94,0.01,,,0.17,WeatherDisplay:10.37,2013-07-11 11:15:00,
2013-07-11 05:30:00,73.9,72.1,29.97,SE,134,1.0,5.0,94,0.00,CLR,,0.17,WeatherDisplay:10.37,2013-07-11 11:30:00,
2013-07-11 05:45:00,75.0,72.9,29.99,ESE,120,8.0,12.0,93,0.00,CLR,,0.17,WeatherDisplay:10.37,2013-07-11 11:45:00,
2013-07-11 06:00:00,76.0,73.5,29.97,ESE,115,6.0,12.0,92,0.01,RA,,0.18,WeatherDisplay:10.37,2013-07-11 12:00:00,
2013-07-11 06:15:00,76.3,74.1,29.98,ESE,103,10.0,15.0,93,0.02,,,0.20,WeatherDisplay:10.37,2013-07-11 12:15:00,
2013-07-11 06:30:00,76.6,73.7,29.98,East,92,8.0,15.0,91,0.00,CLR,,0.20,WeatherDisplay:10.37,2013-07-11 12:30:00,
2013-07-11 06:45:00,76.5,73.0,29.98,East,91,7.0,13.0,89,0.01,RA,,0.21,WeatherDisplay:10.37,2013-07-11 12:45:00,
2013-07-11 07:00:00,76.1,72.3,29.98,ENE,72,3.0,8.0,88,0.00,CLR,,0.21,WeatherDisplay:10.37,2013-07-11 13:00:00,
2013-07-11 07:15:00,76.5,73.7,29.99,NNE,33,1.0,6.0,91,0.00,CLR,,0.21,WeatherDisplay:10.37,2013-07-11 13:15:00,
2013-07-11 07:45:00,77.2,74.4,29.99,NNE,22,3.0,7.0,91,0.00,CLR,,0.21,WeatherDisplay:10.37,2013-07-11 13:45:00,
2013-07-11 08:00:00,77.7,75.2,29.99,NNE,19,2.0,8.0,92,0.00,CLR,,0.21,WeatherDisplay:10.37,2013-07-11 14:00:00,
2013-07-11 08:15:00,78.0,75.5,29.99,NNE,24,3.0,8.0,92,0.00,CLR,,0.21,WeatherDisplay:10.37,2013-07-11 14:15:00,
2013-07-11 08:30:00,78.3,75.4,30.00,NE,37,2.0,8.0,91,0.00,CLR,,0.21,WeatherDisplay:10.37,2013-07-11 14:30:00,
2013-07-11 08:45:00,78.3,74.1,30.00,East,79,6.0,11.0,87,0.00,CLR,,0.21,WeatherDisplay:10.37,2013-07-11 14:45:00,
2013-07-11 09:00:00,78.6,73.7,30.02,ENE,73,5.0,15.0,85,0.00,CLR,,0.21,WeatherDisplay:10.37,2013-07-11 15:00:00,
2013-07-11 09:15:00,78.9,73.6,30.03,East,79,14.0,20.0,84,0.00,CLR,,0.21,WeatherDisplay:10.37,2013-07-11 15:15:00,
2013-07-11 09:30:00,79.1,74.5,30.04,East,85,16.0,23.0,86,0.01,CLR,,0.22,WeatherDisplay:10.37,2013-07-11 15:30:00,
2013-07-11 09:45:00,77.4,72.9,30.04,ESE,105,16.0,28.0,86,0.00,CLR,,0.22,WeatherDisplay:10.37,2013-07-11 15:45:00,
2013-07-11 10:00:00,77.1,72.6,30.03,East,90,10.0,28.0,86,0.00,CLR,,0.22,WeatherDisplay:10.37,2013-07-11 16:00:00,
2013-07-11 10:15:00,77.5,72.3,30.02,ESE,104,14.0,23.0,84,0.00,CLR,,0.22,WeatherDisplay:10.37,2013-07-11 16:15:00,
2013-07-11 10:30:00,77.6,72.4,30.02,East,97,12.0,26.0,84,0.00,CLR,,0.22,WeatherDisplay:10.37,2013-07-11 16:30:00,
2013-07-11 10:45:00,77.7,72.1,30.01,ESE,117,8.0,18.0,83,0.00,CLR,,0.22,WeatherDisplay:10.37,2013-07-11 16:45:00,
2013-07-11 11:00:00,78.0,72.5,30.00,ESE,109,10.0,16.0,83,0.00,CLR,,0.22,WeatherDisplay:10.37,2013-07-11 17:00:00,
2013-07-11 11:15:00,78.5,72.5,29.99,East,88,7.0,16.0,82,0.00,CLR,,0.22,WeatherDisplay:10.37,2013-07-11 17:15:00,
2013-07-11 11:30:00,79.2,72.9,29.98,ESE,102,6.0,16.0,81,0.00,CLR,,0.22,WeatherDisplay:10.37,2013-07-11 17:30:00,
2013-07-11 11:45:00,80.0,72.9,29.98,ESE,108,8.0,15.0,79,0.00,CLR,,0.22,WeatherDisplay:10.37,2013-07-11 17:45:00,
2013-07-11 12:00:00,80.9,74.2,29.97,ESE,104,6.0,15.0,80,0.00,CLR,,0.22,WeatherDisplay:10.37,2013-07-11 18:00:00,
2013-07-11 12:15:00,81.3,74.1,29.96,ESE,114,3.0,10.0,79,0.00,CLR,,0.22,WeatherDisplay:10.37,2013-07-11 18:15:00,
2013-07-11 12:30:00,81.0,73.9,29.96,ESE,111,5.0,9.0,79,0.00,CLR,,0.22,WeatherDisplay:10.37,2013-07-11 18:30:00,
2013-07-11 12:45:00,81.1,73.6,29.95,SE,124,3.0,8.0,78,0.00,CLR,,0.22,WeatherDisplay:10.37,2013-07-11 18:45:00,
2013-07-11 13:00:00,82.2,73.9,29.94,ESE,119,2.0,6.0,76,0.00,CLR,,0.22,WeatherDisplay:10.37,2013-07-11 19:00:00,
2013-07-11 13:15:00,82.4,74.1,29.94,ESE,122,3.0,6.0,76,0.00,CLR,,0.22,WeatherDisplay:10.37,2013-07-11 19:15:00,
2013-07-11 13:30:00,83.6,75.3,29.94,SSE,148,2.0,6.0,76,0.00,CLR,,0.22,WeatherDisplay:10.37,2013-07-11 19:30:00,
2013-07-11 13:45:00,84.6,75.4,29.93,SE,146,2.0,6.0,74,0.00,CLR,,0.22,WeatherDisplay:10.37,2013-07-11 19:45:00,
2013-07-11 14:00:00,85.0,75.8,29.92,SSE,158,1.0,5.0,74,0.00,CLR,,0.22,WeatherDisplay:10.37,2013-07-11 20:00:00,
2013-07-11 14:15:00,85.2,76.0,29.91,SSE,151,2.0,5.0,74,0.00,CLR,,0.22,WeatherDisplay:10.37,2013-07-11 20:15:00,
2013-07-11 14:30:00,84.6,75.8,29.90,SSE,157,2.0,6.0,75,0.00,CLR,,0.22,WeatherDisplay:10.37,2013-07-11 20:30:00,
2013-07-11 14:45:00,83.8,75.4,29.90,SSE,148,2.0,7.0,76,0.00,CLR,,0.22,WeatherDisplay:10.37,2013-07-11 20:45:00,
2013-07-11 15:00:00,83.7,76.1,29.89,ESE,112,2.0,3.0,78,0.00,CLR,,0.22,WeatherDisplay:10.37,2013-07-11 21:00:00,
2013-07-11 15:15:00,84.3,76.7,29.89,ENE,77,1.0,6.0,78,0.00,CLR,,0.22,WeatherDisplay:10.37,2013-07-11 21:15:00,
2013-07-11 15:30:00,83.9,76.3,29.89,ENE,74,2.0,7.0,78,0.00,CLR,,0.22,WeatherDisplay:10.37,2013-07-11 21:30:00,
2013-07-11 15:45:00,83.1,75.9,29.88,ENE,66,2.0,8.0,79,0.00,CLR,,0.22,WeatherDisplay:10.37,2013-07-11 21:45:00,
2013-07-11 16:00:00,82.9,75.7,29.89,NE,54,3.0,8.0,79,0.00,CLR,,0.22,WeatherDisplay:10.37,2013-07-11 22:00:00,
2013-07-11 16:15:00,83.1,76.3,29.89,East,80,2.0,7.0,80,0.00,CLR,,0.22,WeatherDisplay:10.37,2013-07-11 22:15:00,
2013-07-11 16:26:00,82.9,76.5,29.89,East,82,3.0,8.0,81,0.00,CLR,,0.22,WeatherDisplay:10.37,2013-07-11 22:26:00,
2013-07-11 16:45:00,82.4,76.0,29.90,ENE,69,7.0,13.0,81,0.00,CLR,,0.22,WeatherDisplay:10.37,2013-07-11 22:45:00,
2013-07-11 17:00:00,82.1,75.7,29.90,ENE,60,6.0,13.0,81,0.00,CLR,,0.22,WeatherDisplay:10.37,2013-07-11 23:00:00,
2013-07-11 17:15:00,81.7,76.0,29.90,NE,38,6.0,13.0,83,0.00,CLR,,0.22,WeatherDisplay:10.37,2013-07-11 23:15:00,
2013-07-11 17:30:00,81.7,75.7,29.90,NE,38,6.0,13.0,82,0.00,CLR,,0.22,WeatherDisplay:10.37,2013-07-11 23:30:00,
2013-07-11 17:45:00,81.9,76.2,29.90,NE,36,3.0,13.0,83,0.00,CLR,,0.22,WeatherDisplay:10.37,2013-07-11 23:45:00,
2013-07-11 18:00:00,81.5,75.8,29.90,NNE,28,6.0,13.0,83,0.00,CLR,,0.22,WeatherDisplay:10.37,2013-07-12 00:00:00,
2013-07-11 18:15:00,81.2,75.5,29.91,NNE,28,5.0,13.0,83,0.00,CLR,,0.22,WeatherDisplay:10.37,2013-07-12 00:15:00,
2013-07-11 18:30:00,81.2,75.5,29.92,NE,35,5.0,14.0,83,0.00,CLR,,0.22,WeatherDisplay:10.37,2013-07-12 00:30:00,
2013-07-11 19:00:00,80.9,75.2,29.93,NNE,16,6.0,12.0,83,0.00,CLR,,0.22,WeatherDisplay:10.37,2013-07-12 01:00:00,
2013-07-11 19:15:00,80.8,75.5,29.92,North,8,5.0,9.0,84,0.00,CLR,,0.22,WeatherDisplay:10.37,2013-07-12 01:15:00,
2013-07-11 19:30:00,80.6,75.7,29.93,NNE,16,5.0,9.0,85,0.00,CLR,,0.22,WeatherDisplay:10.37,2013-07-12 01:30:00,
2013-07-11 19:45:00,80.5,75.9,29.94,North,5,5.0,8.0,86,0.00,CLR,,0.22,WeatherDisplay:10.37,2013-07-12 01:45:00,
2013-07-11 20:00:00,80.4,76.2,29.94,North,360,3.0,8.0,87,0.00,CLR,,0.22,WeatherDisplay:10.37,2013-07-12 02:00:00,
2013-07-11 20:15:00,80.3,76.1,29.94,North,10,7.0,9.0,87,0.00,CLR,,0.22,WeatherDisplay:10.37,2013-07-12 02:15:00,
2013-07-11 20:30:00,80.3,76.4,29.95,North,8,6.0,9.0,88,0.00,CLR,,0.22,WeatherDisplay:10.37,2013-07-12 02:30:00,
2013-07-11 20:45:00,80.3,76.4,29.94,North,6,5.0,8.0,88,0.00,CLR,,0.22,WeatherDisplay:10.37,2013-07-12 02:45:00,
2013-07-11 21:15:00,80.3,76.8,29.95,NNE,26,6.0,9.0,89,0.00,CLR,,0.22,WeatherDisplay:10.37,2013-07-12 03:15:00,
2013-07-11 21:30:00,80.6,77.1,29.96,NNE,14,5.0,8.0,89,0.00,CLR,,0.22,WeatherDisplay:10.37,2013-07-12 03:30:00,
2013-07-11 21:45:00,80.9,77.4,29.96,NNE,24,6.0,9.0,89,0.00,CLR,,0.22,WeatherDisplay:10.37,2013-07-12 03:45:00,
2013-07-11 22:00:00,81.8,77.9,29.96,ENE,59,6.0,13.0,88,0.00,CLR,,0.22,WeatherDisplay:10.37,2013-07-12 04:00:00,
2013-07-11 22:15:00,82.1,77.9,29.96,NE,52,7.0,14.0,87,0.00,CLR,,0.22,WeatherDisplay:10.37,2013-07-12 04:15:00,
2013-07-11 22:30:00,82.4,77.8,29.97,NE,47,8.0,13.0,86,0.00,CLR,,0.22,WeatherDisplay:10.37,2013-07-12 04:30:00,
2013-07-11 22:45:00,82.4,77.8,29.97,NE,45,8.0,18.0,86,0.00,CLR,,0.22,WeatherDisplay:10.37,2013-07-12 04:45:00,
2013-07-11 23:00:00,80.6,75.7,29.97,ENE,63,9.0,18.0,85,0.00,CLR,,0.22,WeatherDisplay:10.37,2013-07-12 05:00:00,
2013-07-11 23:15:00,78.4,74.8,29.96,ENE,61,8.0,19.0,89,0.00,CLR,,0.22,WeatherDisplay:10.37,2013-07-12 05:15:00,
2013-07-11 23:30:00,79.3,75.8,29.96,East,79,9.0,15.0,89,0.01,,,0.23,WeatherDisplay:10.37,2013-07-12 05:30:00,
2013-07-11 23:45:00,79.5,76.0,29.95,ENE,68,6.0,14.0,89,0.00,CLR,,0.23,WeatherDisplay:10.37,2013-07-12 05:45:00,